Weather History for Pensacola NAS, FL

Change the Weather History Date:

Saturday, January 12, 2013

  Actual Average Record
Temperature  
Mean Temperature 68 °F -  
Max Temperature 73 °F 59 °F - (-1)
Min Temperature 64 °F 40 °F - (-1)
Cooling Degree Days 4    
Growing Degree Days 18 (Base 50)    
Moisture  
Dew Point 67 °F    
Average Humidity 96    
Maximum Humidity 100    
Minimum Humidity 81    
Precipitation  
Precipitation 0.00 in - - ()
Sea Level Pressure  
Sea Level Pressure 30.06 in    
Wind  
Wind Speed 8 mph (SE)    
Max Wind Speed 13 mph    
Max Gust Speed 23 mph    
Visibility 8 miles    
Events      
Averages and records for this station are not official NWS values.
T = Trace of Precipitation, MM = Missing Value Source: NWS Daily Summary

Daily Weather History Graph

Daily Weather History Graph

Search for Another Location

Airport:

Trip Planner

Search our weather history database for the weather conditions in past years. The results will help you decide how hot, cold, wet, or windy it might be!

Date:

Astronomy

Jan. 12, 2013 Rise Set
Actual Time 6:46 AM CST 5:08 PM CST
Civil Twilight 6:20 AM CST 5:34 PM CST
Nautical Twilight 5:51 AM CST 6:04 PM CST
Astronomical Twilight 5:22 AM CST 6:33 PM CST
Moon 7:12 AM CST (1/12) 6:28 PM CST (1/12)
Length of Visible Light 11h 13m
Length of Day
10h 21m
New Moon, 1% of the Moon is Illuminated
Jan 12
New Moon
Jan 18
First Quarter
Jan 26
Full
Feb 3
Last Quarter
Feb 10
New

Hourly Weather History & Observations

Time (CST) Temp. Dew Point Humidity Pressure Visibility Wind Dir Wind Speed Gust Speed Precip Events Conditions
12:56 AM 66.9 °F 66.9 °F 100% 30.12 in 5.0 mi SE 5.8 mph - N/A   Overcast
1:56 AM 66.0 °F 66.0 °F 100% 30.10 in 6.0 mi SE 6.9 mph - N/A   Overcast
2:03 AM 66.2 °F 66.2 °F 100% 30.09 in 6.0 mi SE 5.8 mph - N/A   Overcast
2:21 AM 66.2 °F 66.2 °F 100% 30.09 in 6.0 mi SE 6.9 mph - N/A   Overcast
2:52 AM 66.2 °F 66.2 °F 100% 30.08 in 7.0 mi SE 5.8 mph - N/A   Scattered Clouds
2:56 AM 66.0 °F 66.0 °F 100% 30.09 in 8.0 mi SE 5.8 mph - N/A   Partly Cloudy
3:27 AM 64.4 °F 64.4 °F 100% 30.07 in 8.0 mi SE 3.5 mph - N/A   Mostly Cloudy
3:40 AM 66.2 °F 66.2 °F 100% 30.07 in 7.0 mi SE 6.9 mph - N/A   Mostly Cloudy
3:56 AM 66.0 °F 66.0 °F 100% 30.07 in 8.0 mi SE 8.1 mph - N/A   Overcast
4:56 AM 64.9 °F 64.9 °F 100% 30.08 in 6.0 mi SE 5.8 mph - N/A   Overcast
5:56 AM 66.0 °F 66.0 °F 100% 30.08 in 8.0 mi SE 9.2 mph - 0.00 in   Overcast
6:05 AM 66.2 °F 66.2 °F 100% 30.07 in 8.0 mi SE 6.9 mph - N/A   Overcast
6:56 AM 66.0 °F 66.0 °F 100% 30.09 in 7.0 mi ESE 4.6 mph - N/A   Overcast
7:31 AM 66.2 °F 66.2 °F 100% 30.10 in 6.0 mi ESE 10.4 mph - N/A   Scattered Clouds
7:56 AM 68.0 °F 68.0 °F 100% 30.11 in 8.0 mi ESE 8.1 mph - N/A   Scattered Clouds
8:56 AM 68.0 °F 68.0 °F 100% 30.12 in 10.0 mi SE 10.4 mph - N/A   Mostly Cloudy
9:56 AM 71.1 °F 66.9 °F 87% 30.14 in 10.0 mi SE 11.5 mph - N/A   Mostly Cloudy
10:56 AM 73.0 °F 66.9 °F 81% 30.12 in 10.0 mi SE 9.2 mph 23.0 mph N/A   Mostly Cloudy
11:56 AM 73.0 °F 66.9 °F 81% 30.08 in 10.0 mi SE 12.7 mph - N/A   Mostly Cloudy
12:56 PM 73.9 °F 68.0 °F 82% 30.07 in 10.0 mi SE 12.7 mph 20.7 mph N/A   Mostly Cloudy
1:25 PM 71.6 °F 66.2 °F 83% 30.05 in 10.0 mi SE 12.7 mph - N/A   Overcast
1:56 PM 71.1 °F 66.9 °F 87% 30.05 in 10.0 mi SE 10.4 mph - N/A   Overcast
2:09 PM 71.6 °F 68.0 °F 88% 30.04 in 10.0 mi ESE 9.2 mph - N/A   Overcast
2:56 PM 70.0 °F 68.0 °F 93% 30.05 in 10.0 mi SE 9.2 mph - N/A   Overcast
3:43 PM 69.8 °F 66.2 °F 88% 30.04 in 10.0 mi SE 11.5 mph - N/A   Mostly Cloudy
3:56 PM 69.1 °F 66.9 °F 93% 30.04 in 10.0 mi ESE 8.1 mph - N/A   Mostly Cloudy
4:56 PM 68.0 °F 66.9 °F 96% 30.04 in 9.0 mi ESE 9.2 mph - N/A   Mostly Cloudy
5:27 PM 68.0 °F 66.2 °F 94% 30.03 in 10.0 mi SE 9.2 mph - N/A   Mostly Cloudy
5:36 PM 68.0 °F 66.2 °F 94% 30.03 in 10.0 mi SE 10.4 mph - N/A   Overcast
5:56 PM 68.0 °F 66.9 °F 96% 30.03 in 10.0 mi SE 12.7 mph - N/A   Overcast
6:17 PM 68.0 °F 68.0 °F 100% 30.03 in 10.0 mi SE 11.5 mph - N/A   Overcast
6:56 PM 68.0 °F 66.9 °F 96% 30.02 in 10.0 mi SE 12.7 mph - N/A   Overcast
7:56 PM 68.0 °F 68.0 °F 100% 30.04 in 8.0 mi SSE 10.4 mph - N/A   Overcast
8:56 PM 68.0 °F 66.9 °F 96% 30.02 in 8.0 mi SSE 12.7 mph - N/A   Overcast
9:13 PM 66.2 °F 66.2 °F 100% 30.01 in 8.0 mi SE 12.7 mph - N/A   Overcast
9:56 PM 68.0 °F 68.0 °F 100% 30.01 in 8.0 mi SE 12.7 mph - N/A   Overcast
10:56 PM 68.0 °F 68.0 °F 100% 30.01 in 7.0 mi SSE 11.5 mph - N/A   Overcast
11:56 PM 68.0 °F 66.9 °F 96% 30.01 in 7.0 mi SSE 9.2 mph - N/A   Overcast